Theta_e
331 330 328 324 322 321 320 319 318 320 321 321 321 322 323 323 323 323 323 322 322 322 322 321 322 323 323 323 323 324 325 325 325 326 326 326 325 324 325 326 326 326
330 328 325 323 321 321 319 318 319 321 322 321 322 322 323 323 323 323 323 322 322 322 322 322 323 323 323 323 324 325 325 325 325 326 327 326 325 324 325 325 325 325
329 326 323 322 321 319 319 320 321 322 322 322 321 322 322 323 323 323 323 322 323 323 322 322 323 323 323 323 324 324 325 324 324 325 326 326 325 325 325 325 325 325
326 323 321 321 320 319 320 321 321 321 321 320 320 321 322 323 323 323 323 323 323 323 323 323 323 324 324 324 324 324 324 325 324 324 325 325 325 325 325 326 326 326
323 322 321 320 320 321 321 321 320 320 320 320 320 321 322 322 322 322 323 323 323 323 323 323 323 323 324 323 323 323 324 325 325 324 325 325 324 324 325 325 325 326
321 320 319 319 321 321 321 320 320 320 320 320 320 321 321 321 321 322 322 322 322 323 323 323 322 322 322 322 322 323 323 324 324 324 324 324 324 324 325 325 325 326
320 320 319 320 321 321 320 320 320 320 320 319 320 320 321 321 321 321 321 321 322 322 322 322 321 321 321 321 321 322 322 323 323 323 323 323 323 324 324 325 325 325
319 320 320 320 321 321 320 320 320 319 319 319 319 320 321 321 321 320 320 321 322 322 321 320 320 320 320 320 320 320 321 322 322 321 321 321 322 323 323 324 324 325
320 320 320 320 321 320 320 319 319 319 318 318 319 320 321 321 321 320 320 321 321 320 319 318 317 318 318 318 317 318 318 319 319 319 319 320 320 321 321 322 323 323
320 321 321 321 320 319 318 318 318 318 319 319 319 320 320 320 320 319 319 320 319 318 317 316 316 316 317 317 316 315 315 315 316 317 318 319 320 320 320 321 321 322
321 321 321 319 318 318 318 318 319 319 319 319 320 320 320 319 319 319 318 318 317 317 316 316 315 315 315 316 315 314 314 314 315 316 317 319 319 320 320 320 320 320
321 320 319 318 317 317 318 318 319 318 318 318 319 319 319 319 318 318 317 317 317 316 316 316 315 314 314 314 314 314 314 314 315 317 318 318 319 319 319 319 319 318
320 318 317 317 317 318 318 318 317 316 317 317 318 319 319 318 318 317 317 317 317 316 316 316 315 314 314 314 315 315 315 315 315 316 317 318 318 318 318 317 317 317
318 317 316 317 317 317 317 316 315 315 316 317 317 317 317 317 317 317 316 316 316 316 315 315 314 314 314 315 315 315 315 315 314 314 315 316 317 317 316 316 316 316
316 315 316 316 316 316 315 315 315 315 316 316 316 316 316 316 315 315 315 315 315 314 314 314 314 313 313 314 314 314 314 314 314 313 314 315 316 315 315 315 315 315
315 315 316 316 315 315 315 315 315 315 315 315 315 315 315 314 314 314 314 314 314 313 313 313 313 312 312 312 312 312 313 313 313 313 313 313 313 314 314 313 313 314
315 316 316 315 315 315 314 314 314 314 314 314 314 314 314 313 313 313 313 313 313 313 312 312 311 311 311 311 311 311 311 312 312 312 312 312 312 312 312 312 312 311
315 315 315 315 314 314 314 314 314 314 314 313 313 313 313 313 313 312 312 312 312 312 311 311 310 309 309 310 310 310 310 310 311 311 311 311 310 311 311 310 310 310
315 315 314 314 314 314 314 313 313 313 313 313 313 312 312 312 312 311 311 311 310 310 309 309 308 307 307 308 308 308 308 309 309 309 309 309 308 308 308 308 309 309
315 314 314 313 313 313 313 313 313 313 313 312 312 312 311 311 310 310 309 309 308 307 307 305 305 304 305 305 305 305 306 306 307 307 306 306 306 305 305 305 305 305
314 313 313 313 313 313 313 313 313 312 312 311 311 310 309 309 308 307 306 305 304 303 303 301 301 301 301 301 301 302 302 303 303 303 302 302 301 301 301 300 301 301
313 313 312 312 312 312 312 312 311 311 310 309 308 308 307 305 304 303 302 301 300 299 299 298 298 298 298 298 298 298 298 298 299 299 298 298 298 298 298 298 298 298
312 312 312 311 311 311 311 310 310 309 308 306 306 305 303 302 301 299 298 298 297 297 297 296 296 296 296 296 296 296 296 296 296 296 297 297 297 297 297 297 298 298
312 311 311 311 310 310 310 309 308 306 304 304 303 302 300 299 298 297 296 296 296 296 295 295 295 295 295 295 295 295 295 295 295 295 295 296 296 296 296 297 297 297
310 310 310 309 309 308 307 306 304 303 302 301 300 299 298 297 296 296 296 295 295 295 295 295 294 294 294 294 295 295 295 295 295 295 295 295 295 295 295 295 296 296
309 309 308 308 307 305 304 303 302 301 300 299 298 297 296 296 295 295 295 295 294 294 294 294 294 294 294 294 294 294 295 295 295 295 294 295 294 294 294 295 295 295
Wind_Speed
12 10 10 11 11 12 12 12 12 12 11 11 11 11 13 14 14 14 15 16 16 15 15 15 16 16 16 17 17 18 17 16 16 16 15 14 15 15 14 15 15 16
13 11 10 10 11 11 11 11 11 11 10 11 12 12 13 13 13 14 15 14 14 13 14 14 14 15 15 16 17 17 17 17 16 16 15 13 14 16 15 15 15 16
13 10 9 9 10 9 9 9 10 9 9 11 12 12 12 12 12 14 14 13 13 12 13 13 14 15 15 15 16 17 18 18 17 17 16 14 14 15 15 16 15 16
10 9 8 8 8 8 7 8 8 8 9 11 12 11 11 11 12 12 12 12 12 12 13 14 14 14 15 15 16 18 19 18 17 17 16 15 14 15 16 17 17 17
7 7 7 7 7 6 6 6 7 8 10 11 11 10 10 11 11 10 10 11 12 13 14 14 14 14 14 15 16 17 18 17 16 16 16 15 15 16 17 18 19 19
6 7 7 6 5 4 5 6 7 9 10 10 9 9 10 11 10 10 10 11 12 13 14 14 14 15 15 15 16 17 17 17 17 17 16 16 16 16 16 17 18 19
6 6 5 4 3 4 5 7 8 9 10 9 9 10 11 11 11 11 11 11 12 13 13 14 14 15 15 16 16 17 17 18 18 18 18 18 18 18 18 18 17 18
4 3 2 2 3 4 5 7 8 9 10 10 11 11 11 11 11 12 12 12 12 12 13 14 15 16 16 17 18 19 19 19 19 20 20 20 20 20 19 19 19 19
3 1 1 2 3 5 6 6 8 10 12 12 12 12 12 11 11 12 12 11 11 11 12 13 14 16 16 17 19 20 20 20 20 20 20 20 20 21 21 21 21 21
2 0 1 3 4 5 6 9 12 13 13 13 12 12 11 11 11 11 11 11 11 11 12 13 13 14 15 16 17 18 19 20 19 20 20 20 21 22 23 23 23 23
2 2 3 4 5 7 10 12 13 12 11 11 11 10 11 11 10 10 10 10 11 11 12 12 13 13 14 15 16 18 19 19 19 20 20 20 21 22 23 23 23 25
3 4 4 5 8 11 12 12 11 10 10 10 10 9 10 10 10 10 10 10 11 11 11 12 12 13 14 16 18 19 20 20 20 20 20 20 20 21 22 23 25 27
5 5 6 10 12 13 12 11 10 10 10 10 9 9 9 9 9 10 10 10 11 11 11 12 13 15 17 18 19 20 20 19 19 19 20 20 20 21 23 24 26 28
7 9 12 14 14 12 11 10 10 9 9 9 9 9 10 10 10 11 11 12 12 12 12 13 15 17 19 20 21 21 20 19 19 19 20 20 20 21 23 24 25 26
11 14 15 15 13 11 10 9 9 9 9 9 9 10 10 11 11 12 13 13 13 13 13 14 15 18 20 21 21 21 21 20 20 19 19 19 19 20 22 23 24 25
15 15 15 14 12 11 10 9 9 9 9 9 9 10 10 11 11 11 12 13 13 13 14 14 17 19 20 20 20 21 21 20 20 20 19 19 19 20 21 22 23 24
16 15 15 13 12 10 9 9 9 9 9 9 9 9 9 10 10 10 11 12 13 13 14 16 18 20 19 19 19 19 19 19 19 19 19 20 20 20 21 22 23 23
16 15 14 12 11 10 9 9 8 8 8 8 8 9 9 9 10 11 12 12 13 13 14 16 19 19 18 18 18 18 18 18 18 18 19 20 21 21 22 23 24 25
15 14 12 11 10 9 9 9 8 8 8 9 9 9 9 9 10 11 12 13 13 14 15 17 19 18 18 18 18 18 18 18 18 19 20 22 23 23 24 24 25 25
14 13 12 11 11 10 10 9 9 9 10 10 10 9 9 10 11 12 13 14 14 15 16 18 19 19 19 19 19 19 20 20 20 21 22 23 25 25 26 27 28 27
14 13 12 12 11 11 10 10 10 10 10 10 9 9 10 11 12 13 14 15 16 16 17 19 20 20 19 20 20 20 20 21 21 22 24 25 26 27 28 29 30 30
14 13 12 12 11 11 10 10 10 10 10 9 9 10 12 13 14 15 16 16 16 16 17 19 19 19 18 18 19 19 20 21 22 23 24 26 27 28 29 30 30 31
14 12 12 12 11 11 10 11 11 11 11 11 11 12 13 13 14 15 15 15 15 15 16 17 18 17 17 17 17 18 19 21 22 23 25 26 27 28 28 29 30 30
13 12 11 12 12 11 11 12 12 12 12 12 11 12 13 13 14 14 14 14 15 16 16 17 18 18 18 18 18 19 20 22 23 23 25 26 27 27 27 28 28 29
12 12 11 12 12 13 13 13 13 13 12 11 11 12 12 13 13 13 14 15 16 17 18 18 20 20 20 20 21 21 22 23 24 25 26 26 27 27 27 27 28 28
13 13 13 13 14 15 15 14 13 13 12 11 11 11 12 13 13 13 14 16 17 18 19 20 20 21 21 21 22 23 23 24 26 26 27 26 26 27 27 28 28 28
Wind_Direction
326 323 312 312 319 323 322 323 334 345 343 344 352 352 353 356 353 350 354 356 356 358 359 358 356 352 350 348 349 351 352 352 353 352 352 349 349 351 349 344 340 335
319 314 310 314 317 318 321 330 345 353 348 348 358 359 354 353 352 354 359 0 1 4 5 5 3 359 356 354 354 356 356 357 357 356 357 355 352 354 354 351 349 344
307 305 306 309 310 317 331 346 355 354 350 353 359 359 357 358 360 4 6 8 12 15 14 14 10 6 2 359 358 358 358 359 1 3 3 2 359 357 356 354 350 343
298 297 300 302 313 332 351 360 357 352 354 359 0 1 5 8 10 15 19 23 25 25 23 21 16 12 8 5 3 1 1 2 3 4 6 5 2 360 358 357 354 350
293 295 301 309 327 348 360 359 356 359 2 1 3 9 15 18 23 30 34 33 31 30 30 27 22 18 14 11 10 7 5 7 6 5 4 3 360 357 357 357 357 358
290 297 307 319 341 357 357 358 1 4 4 4 15 29 32 33 37 41 38 34 34 35 34 31 27 24 19 15 14 13 11 11 9 6 4 2 1 1 2 3 359 360
287 295 305 325 355 3 2 5 6 9 14 22 38 51 50 46 46 44 41 38 39 39 36 33 31 26 20 17 17 18 17 15 13 12 12 11 11 10 12 12 8 4
289 291 306 342 4 11 13 12 14 28 42 47 54 58 56 54 52 47 46 45 43 41 38 36 34 30 26 25 26 27 25 23 22 21 22 21 18 16 16 17 17 14
276 271 336 26 31 25 24 33 49 60 62 60 60 60 57 57 55 50 47 46 44 44 42 38 36 36 34 33 32 30 28 27 27 25 24 24 22 21 22 22 22 22
227 132 61 55 47 42 51 68 76 74 69 67 63 58 56 54 53 49 46 46 46 44 39 34 33 34 34 33 31 27 24 23 23 22 23 24 26 27 28 28 28 28
149 106 87 68 64 78 86 87 84 79 74 70 62 57 57 54 51 49 44 41 36 31 29 25 24 25 27 29 27 24 22 21 20 22 24 27 30 32 33 35 36 36
127 108 93 88 94 98 97 92 88 82 76 70 62 58 57 52 48 43 36 30 25 23 23 20 18 22 26 28 27 27 28 27 27 30 31 31 34 39 40 40 41 40
126 112 107 108 107 103 99 94 88 81 73 66 61 56 52 46 39 31 26 24 21 21 23 25 27 31 33 32 31 32 32 33 35 36 37 39 43 47 46 43 42 41
124 118 116 112 108 104 98 92 85 77 71 66 60 53 48 42 35 33 32 30 30 32 35 38 40 40 38 35 32 31 30 32 35 37 39 43 46 47 45 41 40 40
124 122 118 113 108 104 98 90 82 77 73 68 61 54 50 47 44 44 44 45 47 49 49 47 45 42 38 33 29 28 26 25 27 30 35 39 40 39 37 37 37 38
124 122 117 112 108 103 97 89 83 79 75 70 65 60 57 55 54 53 53 54 55 54 50 48 46 43 38 32 28 27 25 23 23 24 28 30 31 31 30 32 34 34
123 119 115 112 108 102 96 91 87 83 79 74 70 66 63 62 59 58 57 54 52 49 46 46 46 43 38 32 30 28 25 25 25 25 26 28 29 31 31 31 31 30
119 116 113 110 107 103 99 95 91 87 82 78 75 71 69 66 61 58 57 53 50 48 46 48 48 43 37 34 32 30 29 28 30 31 32 33 34 35 35 32 31 32
118 117 115 112 110 106 102 98 94 92 89 84 80 76 71 66 62 59 57 54 53 52 51 52 50 44 38 36 34 34 33 33 36 38 38 39 40 39 39 37 36 35
122 122 120 116 114 110 106 104 101 97 92 87 83 78 71 65 62 60 59 59 59 59 59 58 55 48 43 40 39 39 39 40 43 45 46 46 45 45 44 43 41 40
128 128 125 120 118 116 113 110 104 97 92 88 84 77 70 68 68 67 68 68 67 65 65 64 61 55 49 46 45 45 45 46 48 50 52 52 51 50 49 47 45 43
133 132 129 124 121 121 117 110 103 97 94 89 84 80 78 78 78 77 76 74 71 68 66 67 65 59 53 50 48 47 48 50 51 52 53 52 51 50 48 46 44 42
137 135 131 127 127 125 117 110 104 99 96 91 89 89 88 86 84 81 78 75 71 67 64 65 64 58 53 51 47 46 49 51 52 52 53 53 51 49 48 45 42 39
139 137 134 130 130 125 115 110 106 102 100 99 97 95 91 87 85 81 77 71 66 64 61 61 61 58 53 51 49 48 51 54 54 53 53 53 52 49 47 45 42 39
141 138 135 132 128 122 114 111 108 106 106 104 99 94 90 87 83 78 73 69 65 63 61 60 61 60 57 56 55 53 54 56 56 54 54 53 51 49 46 44 41 39
141 137 134 131 126 120 116 113 110 109 107 103 97 91 88 85 80 76 73 71 69 67 65 64 65 65 63 61 59 57 56 58 58 56 54 52 51 49 46 43 41 39